Flag for Czech Republic Weather past 2 weeks in Tábor, Czech Republic

Now
50 °F

Fog.


Feels Like: 49 °F
Forecast: 50 / 73 °F
Wind: 3 mph from East

Location: Kocelovice

Current Time: Sep 18, 2014 at 6:24:00 AM

Latest Report: Sep 18, 2014 at 5:00 AM


Visibility: 4 mi

Pressure: 29.98 "Hg

Humidity: 98%

Dew point: 50 °F

Location of TáborLocation

Historic Weather in Tábor — Graph

°F

Tábor temperature yesterday

Maximum temperature yesterday: 70 °F (at 3:00 PM)
Minimum temperature yesterday: 56 °F (at 5:00 AM)
Average temperature yesterday: 60 °F

Past Weeks' High & Low Weather Summary

 TemperatureHumidityPressure
High76 °F (Sep 8, 4:00 PM)100% (Sep 3, 7:00 AM)30.17 "Hg (Sep 3, 7:00 AM)
Low50 °F (Sep 18, 5:00 AM)47% (Sep 6, 4:00 PM)29.81 "Hg (Sep 12, 9:00 AM)
Average60 °F87%30.01 "Hg
* Reported Sep 3 5:00 AM — Sep 18 5:00 AM, Tábor, Weather by CustomWeather, © 2014

Note: Actual official high and low records may vary slightly from our data, if they occured in-between our weather recording intervals... More about our weather records

Advertising

Tábor weather history for previous 24 hours

 ConditionsComfort  
Time TempWeatherWind HumidityBarometerVisibility
5:00 AM
Sep 18
50 °FFog.3 mph98%29.98 "Hg4 mi
4:00 AM51 °FFog.3 mph98%29.99 "Hg5 mi
3:00 AM51 °FCool.5 mph97%29.99 "Hg7 mi
2:00 AM53 °FCool.6 mph95%29.98 "Hg11 mi
1:00 AM54 °FCool.3 mph93%29.99 "Hg12 mi
12:00 AM55 °FCool.3 mph90%29.98 "Hg12 mi
11:00 PM
Sep 17
56 °FCool.3 mph86%29.98 "Hg12 mi
10:00 PM59 °FClear.5 mph80%29.98 "Hg28 mi
9:00 PM60 °FPassing clouds.6 mph79%29.97 "Hg28 mi
8:00 PM62 °FPassing clouds.6 mph73%29.96 "Hg25 mi
7:00 PM63 °FPassing clouds.6 mph72%29.95 "Hg28 mi
6:00 PM67 °FPassing clouds.7 mph65%29.93 "Hg25 mi
5:00 PM68 °FPassing clouds.8 mph61%29.93 "Hg25 mi
4:00 PM68 °FPassing clouds.8 mph61%29.93 "Hg25 mi
3:00 PM70 °FPassing clouds.6 mph58%29.94 "Hg25 mi
2:00 PM68 °FPassing clouds.6 mph61%29.95 "Hg22 mi
1:00 PM67 °FPassing clouds.7 mph66%29.97 "Hg22 mi
12:00 PM64 °FScattered clouds.6 mph73%29.99 "Hg17 mi
11:00 AM62 °FScattered clouds.6 mph80%30.00 "Hg16 mi
10:00 AM58 °FPartly sunny.3 mph87%30.02 "Hg14 mi
9:00 AM56 °FLow clouds.5 mph92%30.03 "Hg11 mi
8:00 AM56 °FLow clouds.5 mph94%30.03 "Hg9 mi
7:00 AM56 °FCool.6 mph94%30.02 "Hg12 mi
6:00 AM56 °FCool.6 mph95%30.02 "Hg9 mi
Weather by CustomWeather, © 2014

See weather overviewHow to use our weather pages